fbpx

Race date: 7-Feb-2021, Sunday

Temp: High 32° | Low 20° with Humidity 20%

DNS : DID NOT START | DNF : DID NOT FINISH WITHIN THE CUT-OFF

50k (Cut off time 8:30:00)

PosBibNameFinish timeCat Pos
1F-024Prathap Balageri5:38:301/14
2F-038Ganesh Kumar5:58:262/14
3F-033Pavish Shankarnathan6:14:383/14
4F-031Bikash Sahoo6:17:324/14
5F-039Pratheep J6:51:415/14
6F-037Vijay Jittin7:44:336/14
7F-034Mahesh Madhyastha8:02:177/14
8F-029Dr Chiran Babu8:02:298/14
9F-035Sampath Kumar8:03:309/14
10F-036Nitesh Solanki8:33:5110/14
11F-027Shireesh Anjal8:33:5111/14
12F-040Yuva8:40:4012/14
13F-028Dr Sreedhara ShettyDNF
14F-032Jaisinh VaerkarDNF
15F-030SureshDNS

25k (Cut off time 4:30:00)

PosBibNameFinish timeCat Pos
1T-012Tor Andreas Andersen2:48:001/22
2T-023Bhavaniprasad Hegde2:52:002/22
3T-011Dr Magesh3:02:003/22
4T-021Sriram3:24:184/22
5T-019Anjana Mohan3:24:381/3
6T-015Manjunath S.Sagar3:24:445/22
7T-002Senthil Kumar Subramanian3:27:546/22
8T-001Pugal Panneerselvam3:28:167/22
9T-009MD Shahid3:31:498/22
10T-008Prateek Rastogi3:34:069/22
11T-027Balakrishnan N3:36:1310/22
12T-007Sanal C S3:37:3511/22
13T-010Kabilan3:38:1012/22
14T-003Manoj3:40:0013/22
15T-014Chandan Gaddehosur3:45:3914/22
16T-017Bahar Sinha4:04:042/3
17T-022Dr Rajkumar4:09:0415/22
18T-020Dr Prabu P4:09:0516/22
19T-004Anirudh B G4:10:0417/22
20T-006Krishnakumar M4:15:0818/22
21T-005Praveen Pathiyil4:15:0919/22
22T-018Suganya Pushpa Sankari4:24:183/3
23T-013Sriniwaas4:25:3720/22
24T-016Sridharan Sundaram4:25:3821/22
25T-025Manicka Sundaram P4:25:5722/22
26T-026Dhinakaran MDNS